User: anonymous   Login
Location: Unspecified
(0.0000°N, 0.0000°E)
Time: 16:40:06
(UTC+02:00)
Language:

ARIANE DEB (SPELDA) - Orbit

View from above orbital plane
View from above orbital plane
View from above satellite
View from above satellite

Ground track
Ground track

The orbit data is extracted from the following two-line orbital elements,

1 27402U 02015D   14295.08125655  .00002084  00000-0  26957-2 0   925
2 27402 003.3749 196.9033 7105155 175.2739 352.8438 02.45914580110038
Epoch (UTC): 22 October 2014 01:57:00
Eccentricity: 0.7105155
inclination: 3.3749°
perigee height: 333 km
apogee height: 33280 km
right ascension of ascending node: 196.9033°
argument of perigee: 175.2739°
revolutions per day: 2.45914580
mean anomaly at epoch: 352.8438°
orbit number at epoch: 11003

The dashed part of the orbit path shows where the satellite is in the earth's shadow,  

DLR